time_stamp(utc),avg(mph),gust(mph),direction(deg),12m_air_temp(f),sonic_u(cm/s),sonic_v(cm/s),sonic_w(cm/s),pressure,2m_air_temp(f),pyranometer(W/m^2)
"2021-01-30 00:02:39+00",28.6,34.6,,24.3,-881,941,55,1023.01,24,0
"2021-01-30 00:07:39+00",26.4,31.4,,24.5,-783,910,57,1023.16,24.1,0
"2021-01-30 00:12:39+00",27.7,31.7,,24.4,-827,924,78,1023.26,24,0
"2021-01-30 00:17:39+00",28.3,33.3,,24.3,-865,928,68,1023.12,24,0
"2021-01-30 00:22:39+00",26.7,29.7,,24.3,-801,898,33,1023.35,24,0
"2021-01-30 00:27:39+00",21.2,28.2,,24.1,-546,747,63,1023.66,23.8,0
"2021-01-30 00:32:39+00",22.2,26.2,,24,-640,776,50,1023.64,23.6,0
"2021-01-30 00:37:39+00",22.2,27.2,,24,-715,699,82,1023.57,23.6,0
"2021-01-30 00:42:39+00",20.3,27.3,,24.1,-666,668,63,1023.69,23.8,0
"2021-01-30 00:47:39+00",22.8,27.8,,24,-614,789,52,1023.69,23.6,0
"2021-01-30 00:52:39+00",22.4,26.4,,23.8,-558,808,26,1023.76,23.5,0
"2021-01-30 00:57:39+00",19.7,22.7,,23.6,-449,741,50,1023.81,23.3,0
"2021-01-30 01:02:39+00",20.5,24.5,,23.4,-545,747,28,1023.9,23,0
"2021-01-30 01:07:39+00",19.8,21.8,,23.2,-342,793,23,1023.9,22.9,0
"2021-01-30 01:12:39+00",20.4,26.4,,23.2,-404,792,32,1023.99,22.8,0
"2021-01-30 01:17:39+00",18.7,20.7,,23.1,-454,695,57,1023.94,22.7,0
"2021-01-30 01:22:39+00",22.7,25.7,,23,-453,897,31,1023.97,22.5,0
"2021-01-30 01:27:39+00",23.9,29.9,,23,-520,941,56,1023.84,22.5,0
"2021-01-30 01:32:39+00",23.1,29.1,,23,-566,888,43,1023.96,22.5,0
"2021-01-30 01:37:39+00",24.9,27.9,,22.9,-588,925,69,1024.02,22.5,0
"2021-01-30 01:42:39+00",27.1,30.1,,22.9,-663,1002,54,1023.94,22.5,0
"2021-01-30 01:47:39+00",23.8,29.8,,22.8,-580,864,65,1023.92,22.5,0
"2021-01-30 01:52:39+00",25.6,33.6,,22.7,-718,888,55,1023.95,22.5,0
"2021-01-30 01:57:39+00",25.2,29.2,,22.7,-642,911,63,1023.91,22.4,0
"2021-01-30 02:02:39+00",31.3,34.3,,22.6,-811,1142,57,1023.82,22.3,0
"2021-01-30 02:07:39+00",24.9,29.9,,22.7,-666,905,64,1024,22.4,0
"2021-01-30 02:12:39+00",21.0,25.0,,22.5,-618,729,95,1023.96,22.3,0
"2021-01-30 02:17:39+00",29.7,37.7,,22.6,-796,1082,67,1023.86,22.3,0
"2021-01-30 02:22:39+00",26.8,29.8,,22.5,-748,926,34,1024.01,22.3,0
"2021-01-30 02:27:39+00",21.5,26.5,,22.4,-551,760,39,1024.06,22.1,0
"2021-01-30 02:32:39+00",20.7,22.7,,22.3,-484,771,76,1024.2,22,0
"2021-01-30 02:37:39+00",25.4,30.4,,22.3,-610,968,49,1024.04,21.9,0
"2021-01-30 02:42:39+00",23.7,30.7,,22.2,-585,855,70,1024.09,21.9,0
"2021-01-30 02:47:39+00",22.0,25.0,,22.1,-494,838,42,1024.08,21.8,0
"2021-01-30 02:52:39+00",24.0,27.0,,22.2,-578,877,30,1024.24,21.8,0
"2021-01-30 02:57:39+00",23.6,28.6,,22,-633,862,36,1024.2,21.7,0
"2021-01-30 03:02:39+00",21.7,26.7,,21.9,-496,839,70,1024.23,21.6,0
"2021-01-30 03:07:39+00",23.5,27.5,,21.9,-701,784,43,1024.28,21.6,0
"2021-01-30 03:12:39+00",24.0,26.0,,21.9,-780,752,88,1024.24,21.6,0
"2021-01-30 03:17:39+00",22.2,26.2,,21.8,-604,793,77,1024.25,21.5,0
"2021-01-30 03:22:39+00",24.8,26.8,,21.8,-659,875,44,1024.23,21.6,0
"2021-01-30 03:27:39+00",23.0,26.0,,21.6,-616,818,50,1024.32,21.4,0
"2021-01-30 03:32:39+00",24.3,29.3,,21.8,-665,882,36,1024.27,21.5,0
"2021-01-30 03:37:39+00",26.9,29.9,,21.6,-806,928,60,1024.33,21.4,0
"2021-01-30 03:42:39+00",26.3,30.3,,21.6,-725,907,32,1024.41,21.4,0
"2021-01-30 03:47:39+00",22.5,25.5,,21.7,-674,734,59,1024.5,21.4,0
"2021-01-30 03:52:39+00",25.0,31.0,,21.7,-795,851,68,1024.51,21.4,0
"2021-01-30 03:57:39+00",23.7,26.7,,21.6,-717,751,45,1024.6,21.4,0
"2021-01-30 04:02:39+00",21.6,24.6,,21.4,-694,699,40,1024.82,21.3,0
"2021-01-30 04:07:39+00",18.3,21.3,,21.4,-514,630,60,1024.84,21.2,0
"2021-01-30 04:12:39+00",19.3,22.3,,21.3,-539,665,35,1024.83,21.1,0
"2021-01-30 04:17:39+00",17.5,19.5,,21.1,-476,616,42,1024.89,20.8,0
"2021-01-30 04:22:39+00",18.8,21.8,,21,-526,679,32,1024.95,20.7,0
"2021-01-30 04:27:39+00",18.8,21.8,,21,-527,666,47,1024.89,20.7,0
"2021-01-30 04:32:39+00",17.6,20.6,,20.8,-473,627,55,1024.85,20.5,0
"2021-01-30 04:37:39+00",20.3,24.3,,20.8,-589,690,46,1024.89,20.5,0
"2021-01-30 04:42:39+00",18.2,23.2,,20.7,-502,652,40,1024.95,20.4,0
"2021-01-30 04:47:39+00",20.1,23.1,,20.7,-545,719,33,1024.87,20.4,0
"2021-01-30 04:52:39+00",19.7,25.7,,20.6,-556,681,31,1024.97,20.4,0
"2021-01-30 04:57:39+00",18.6,21.6,,20.8,-580,607,61,1024.97,20.4,0
"2021-01-30 05:02:39+00",23.1,27.1,,20.7,-693,773,52,1024.97,20.5,0
"2021-01-30 05:07:39+00",19.9,22.9,,20.6,-597,680,51,1024.99,20.4,0
"2021-01-30 05:12:39+00",19.8,21.8,,20.4,-515,711,59,1025.01,20.2,0
"2021-01-30 05:17:39+00",20.0,25.0,,20.3,-468,753,26,1024.99,20,0
"2021-01-30 05:22:39+00",21.4,25.4,,20.2,-480,834,45,1024.95,20,0
"2021-01-30 05:27:39+00",20.0,23.0,,20.2,-490,738,46,1024.94,19.9,0
"2021-01-30 05:32:39+00",22.2,24.2,,20.1,-468,856,3,1024.99,19.7,0
"2021-01-30 05:37:39+00",18.8,20.8,,19.9,-462,712,39,1025.2,19.6,0
"2021-01-30 05:42:39+00",19.6,22.6,,19.9,-517,716,44,1025.2,19.6,0
"2021-01-30 05:47:39+00",17.6,19.6,,19.9,-420,652,41,1025.19,19.5,0
"2021-01-30 05:52:39+00",18.6,22.6,,19.8,-403,716,33,1025.28,19.5,0
"2021-01-30 05:57:39+00",18.8,20.8,,19.8,-399,740,28,1025.31,19.4,0
"2021-01-30 06:02:39+00",20.6,22.6,,19.8,-476,782,45,1025.23,19.4,0
"2021-01-30 06:07:39+00",21.5,25.5,,19.8,-425,859,40,1025.3,19.4,0
"2021-01-30 06:12:39+00",18.8,21.8,,19.8,-349,773,31,1025.23,19.4,0
"2021-01-30 06:17:39+00",20.4,23.4,,19.7,-503,743,59,1025.35,19.3,0
"2021-01-30 06:22:39+00",21.3,26.3,,19.8,-469,817,40,1025.43,19.3,0
"2021-01-30 06:27:39+00",19.2,22.2,,19.7,-364,771,48,1025.52,19.3,0
"2021-01-30 06:32:39+00",17.6,20.6,,19.6,-333,726,41,1025.56,19.2,0
"2021-01-30 06:37:39+00",17.3,20.3,,19.5,-366,687,40,1025.54,19.1,0
"2021-01-30 06:42:39+00",17.0,19.0,,19.5,-386,653,42,1025.64,19.1,0
"2021-01-30 06:47:39+00",21.4,24.4,,19.6,-319,915,25,1025.59,19,0
"2021-01-30 06:52:39+00",19.0,22.0,,19.6,-384,758,53,1025.55,19.1,0
"2021-01-30 06:57:39+00",18.6,21.6,,19.6,-498,673,76,1025.58,19.1,0
"2021-01-30 07:02:39+00",23.7,27.7,,19.6,-707,809,71,1025.68,19.2,0
"2021-01-30 07:07:39+00",22.0,27.0,,19.6,-501,860,34,1025.82,19.2,0
"2021-01-30 07:12:39+00",20.5,26.5,,19.6,-582,695,65,1025.99,19.2,0
"2021-01-30 07:17:39+00",20.3,22.3,,19.6,-490,742,44,1026,19.2,0
"2021-01-30 07:22:39+00",21.2,25.2,,19.6,-591,757,60,1025.92,19.2,0
"2021-01-30 07:27:39+00",19.4,22.4,,19.5,-432,751,28,1025.99,19.1,0
"2021-01-30 07:32:39+00",20.3,23.3,,19.5,-393,775,41,1025.77,19.1,0
"2021-01-30 07:37:39+00",16.1,19.1,,19.4,-402,580,49,1025.87,19,0
"2021-01-30 07:42:39+00",14.8,16.8,,19.4,-356,547,43,1025.89,18.9,0
"2021-01-30 07:47:39+00",16.2,20.2,,19.3,-376,613,24,1025.82,18.9,0
"2021-01-30 07:52:39+00",16.5,19.5,,19.3,-433,595,30,1025.94,18.8,0
"2021-01-30 07:57:39+00",16.3,18.3,,19.3,-418,593,37,1025.92,18.8,0
"2021-01-30 08:02:39+00",17.1,19.1,,19.3,-460,624,32,1025.95,18.8,0
"2021-01-30 08:07:39+00",14.8,15.8,,19.2,-423,513,28,1026.01,18.8,0
"2021-01-30 08:12:39+00",14.7,15.7,,19.1,-381,526,20,1026.12,18.7,0
"2021-01-30 08:17:39+00",13.1,14.1,,19,-329,468,20,1026.02,18.6,0
"2021-01-30 08:22:39+00",12.2,14.2,,18.9,-323,443,11,1026.12,18.5,0
"2021-01-30 08:27:39+00",11.2,12.2,,18.9,-306,381,23,1026.12,18.3,0
"2021-01-30 08:32:39+00",11.4,14.4,,18.9,-307,384,22,1026.18,18.2,0
"2021-01-30 08:37:39+00",12.4,13.4,,18.9,-300,455,21,1025.99,18.3,0
"2021-01-30 08:42:39+00",14.1,17.1,,18.9,-406,486,13,1026.11,18.3,0
"2021-01-30 08:47:39+00",12.6,16.6,,18.9,-321,440,12,1026.2,18.4,0
"2021-01-30 08:52:39+00",12.9,14.9,,18.9,-339,469,25,1026.13,18.4,0
"2021-01-30 08:57:39+00",11.6,13.6,,18.9,-265,460,23,1026.22,18.3,0
"2021-01-30 09:02:39+00",13.0,16.0,,18.9,-146,550,-6,1026.17,18.2,0
"2021-01-30 09:07:39+00",13.5,16.5,,19,-81,597,-3,1026.05,18.1,0
"2021-01-30 09:12:39+00",13.8,16.8,,19,-215,584,5,1026.11,18,0
"2021-01-30 09:17:39+00",12.8,14.8,,19,-201,543,15,1026.23,18.2,0
"2021-01-30 09:22:39+00",11.8,14.8,,19,-163,494,14,1026.21,18.2,0
"2021-01-30 09:27:39+00",13.7,15.7,,18.9,-235,558,10,1026.29,18.2,0
"2021-01-30 09:32:39+00",12.4,14.4,,19,-204,498,18,1026.31,18.2,0
"2021-01-30 09:37:39+00",12.7,14.7,,19,-261,508,10,1026.29,18.2,0
"2021-01-30 09:42:39+00",13.5,14.5,,19.2,-277,529,12,1026.29,18.3,0
"2021-01-30 09:47:39+00",12.0,14.0,,19,-249,453,10,1026.37,18.3,0
"2021-01-30 09:52:39+00",8.3,9.3,,18.8,-196,312,24,1026.34,18.2,0
"2021-01-30 09:57:39+00",12.8,15.8,,18.8,-286,498,25,1026.35,18.1,0
"2021-01-30 10:02:39+00",9.7,12.7,,18.6,-196,391,18,1026.36,18,0
"2021-01-30 10:07:39+00",9.1,11.1,,18.5,-203,360,17,1026.46,17.9,0
"2021-01-30 10:12:39+00",9.6,12.6,,18.5,-178,378,18,1026.41,17.7,0
"2021-01-30 10:17:39+00",10.1,11.1,,18.3,-174,398,17,1026.51,17.5,0
"2021-01-30 10:22:39+00",10.0,12.0,,18.3,-179,404,3,1026.45,17.5,0
"2021-01-30 10:27:39+00",10.6,12.6,,18.3,-189,428,7,1026.5,17.5,0
"2021-01-30 10:32:39+00",10.4,11.4,,18.4,-187,416,9,1026.55,17.5,0
"2021-01-30 10:37:39+00",9.5,10.5,,18.4,-159,381,13,1026.67,17.5,0
"2021-01-30 10:42:39+00",9.0,11.0,,18.3,-167,364,16,1026.64,17.4,0
"2021-01-30 10:47:39+00",9.2,11.2,,18.4,-179,375,11,1026.82,17.4,0
"2021-01-30 10:52:39+00",8.8,9.8,,18.3,-156,353,11,1026.83,17.3,0
"2021-01-30 10:57:39+00",8.6,9.6,,18.3,-176,340,10,1026.92,17.3,0
"2021-01-30 11:02:39+00",7.0,8.0,,18.3,-150,259,13,1026.92,17.2,0
"2021-01-30 11:07:39+00",7.4,8.4,,18.2,-177,268,21,1026.94,17.2,0
"2021-01-30 11:12:39+00",7.8,8.8,,18.1,-199,286,10,1026.98,17.1,0
"2021-01-30 11:17:39+00",8.3,10.3,,18.1,-193,317,1,1027.04,17.1,0
"2021-01-30 11:22:39+00",9.5,11.5,,18.3,-246,347,8,1027.04,17.1,0
"2021-01-30 11:27:39+00",8.5,9.5,,18.7,-206,309,15,1027.1,17.3,0
"2021-01-30 11:32:39+00",6.6,7.6,,18.8,-206,213,21,1027.13,17.6,0
"2021-01-30 11:37:39+00",7.8,8.8,,19,-242,252,24,1027.15,17.8,0
"2021-01-30 11:42:39+00",9.7,10.7,,19,-283,311,20,1027.2,18,0
"2021-01-30 11:47:39+00",8.9,9.9,,19,-225,318,15,1027.24,18.2,0
"2021-01-30 11:52:39+00",7.4,8.4,,18.8,-193,257,19,1027.27,18.2,0
"2021-01-30 11:57:39+00",8.0,8.0,,18.6,-182,296,11,1027.21,18,0
"2021-01-30 12:02:39+00",7.8,8.8,,18.4,-207,281,14,1027.27,17.7,0
"2021-01-30 12:07:39+00",8.4,9.4,,18.3,-197,307,14,1027.25,17.5,0
"2021-01-30 12:12:39+00",8.4,8.4,,18.1,-209,303,8,1027.19,17.3,0
"2021-01-30 12:17:39+00",7.8,8.8,,18,-188,285,9,1027.29,17.3,0
"2021-01-30 12:22:39+00",8.2,9.2,,18,-183,313,10,1027.4,17.2,0
"2021-01-30 12:27:39+00",7.4,8.4,,18.1,-171,272,19,1027.44,17.3,0
"2021-01-30 12:32:39+00",9.0,10.0,,18.1,-256,310,17,1027.52,17.5,0
"2021-01-30 12:37:39+00",8.9,9.9,,18,-204,330,13,1027.47,17.6,0
"2021-01-30 12:42:39+00",8.1,9.1,,18,-198,304,21,1027.59,17.7,0
"2021-01-30 12:47:39+00",7.4,8.4,,18.2,-157,284,15,1027.61,17.9,0
"2021-01-30 12:52:39+00",7.6,8.6,,18.5,-116,311,2,1027.62,18.4,0
"2021-01-30 12:57:39+00",9.5,11.5,,18.7,-183,382,4,1027.54,19,0
"2021-01-30 13:02:39+00",9.1,10.1,,18.9,-138,379,5,1027.41,19.6,0
"2021-01-30 13:07:39+00",9.6,11.6,,19.3,-154,395,16,1027.39,20.3,0
"2021-01-30 13:12:39+00",8.7,9.7,,19.5,-113,365,37,1027.41,20.9,0
"2021-01-30 13:17:39+00",9.4,10.4,,19.9,-85,404,-1,1027.4,21.7,0
"2021-01-30 13:22:39+00",9.0,10.0,,19.9,-83,389,2,1027.34,22.3,0
"2021-01-30 13:27:39+00",10.3,12.3,,20.2,-124,437,0,1027.47,22.9,0
"2021-01-30 13:32:39+00",10.8,11.8,,20,-34,471,-1,1027.46,23.1,0
"2021-01-30 13:37:39+00",11.7,13.7,,20.2,-107,512,-3,1027.52,23.3,0
"2021-01-30 13:42:39+00",11.4,13.4,,20.3,-105,485,4,1027.33,23.8,0
"2021-01-30 13:47:39+00",11.6,13.6,,20.3,-141,487,18,1027.48,24,0
"2021-01-30 13:52:39+00",10.1,12.1,,20.5,55,433,0,1027.47,24,0
"2021-01-30 13:57:39+00",11.9,13.9,,20.6,-22,517,-3,1027.39,24.2,0
"2021-01-30 14:02:39+00",13.0,14.0,,20.7,-75,571,1,1027.35,24.4,0
"2021-01-30 14:07:39+00",11.9,13.9,,21,-11,518,2,1027.17,24.7,0
"2021-01-30 14:12:39+00",12.2,14.2,,21.1,-155,525,5,1027.22,24.9,0
"2021-01-30 14:17:39+00",11.1,12.1,,21.2,-177,454,5,1027.22,24.9,0
"2021-01-30 14:22:39+00",10.9,12.9,,21.4,-94,474,7,1027.24,25.3,0
"2021-01-30 14:27:39+00",10.4,11.4,,21.8,-100,438,26,1027.23,25.6,0
"2021-01-30 14:32:39+00",10.4,11.4,,21.8,-203,406,30,1027.07,25.7,0
"2021-01-30 14:37:39+00",13.8,15.8,,22.2,-292,547,22,1027.12,25.3,0
"2021-01-30 14:42:39+00",14.2,17.2,,22.4,-268,557,31,1027.15,25.2,0
"2021-01-30 14:47:39+00",14.0,17.0,,22.7,-315,546,45,1027.28,25.4,0
"2021-01-30 14:52:39+00",13.2,15.2,,22.9,-330,495,30,1027.37,25.4,0
"2021-01-30 14:57:39+00",17.4,19.4,,22.6,-551,556,24,1027.21,25.2,0
"2021-01-30 15:02:39+00",16.4,18.4,,22.7,-473,559,53,1027.48,25,0
"2021-01-30 15:07:39+00",13.5,16.5,,23.1,-410,441,72,1027.35,25.2,0
"2021-01-30 15:12:39+00",18.7,20.7,,23.2,-420,716,55,1027.42,25.3,0
"2021-01-30 15:17:39+00",16.7,18.7,,23.3,-459,572,43,1027.39,25.4,0
"2021-01-30 15:22:39+00",15.6,17.6,,23.4,-473,511,50,1027.28,25.4,0
"2021-01-30 15:27:39+00",14.7,18.7,,23.6,-356,552,40,1027.3,25.6,0
"2021-01-30 15:32:39+00",16.7,17.7,,23.7,-325,661,37,1027.36,25.9,0
"2021-01-30 15:37:39+00",19.3,21.3,,23.8,-445,749,33,1027.26,25.9,0
"2021-01-30 15:42:39+00",19.6,21.6,,24,-618,615,38,1027.22,26.1,0
"2021-01-30 15:47:39+00",18.2,20.2,,24.1,-541,609,69,1027.21,26.1,0
"2021-01-30 15:52:39+00",17.0,19.0,,24.2,-552,521,40,1027.33,26.2,0
"2021-01-30 15:57:39+00",11.1,13.1,,24.5,-327,381,66,1027.28,26.5,0
"2021-01-30 16:02:39+00",9.7,11.7,,24.7,-301,310,39,1027.26,26.8,0
"2021-01-30 16:07:39+00",10.5,12.5,,24.8,-249,398,23,1027.22,27.3,0
"2021-01-30 16:12:39+00",7.7,8.7,,25,-192,274,35,1027.07,27.6,0
"2021-01-30 16:17:39+00",7.7,8.7,,25.1,-149,295,2,1027.01,28,0
"2021-01-30 16:22:39+00",9.4,13.4,,25.4,-203,355,37,1026.99,28.3,0
"2021-01-30 16:27:39+00",12.2,13.2,,25.5,-424,340,20,1026.97,28.4,0
"2021-01-30 16:32:39+00",13.4,15.4,,25.9,-430,400,61,1026.94,28.6,0
"2021-01-30 16:37:39+00",11.1,15.1,,26.1,-418,285,31,1026.93,28.8,0
"2021-01-30 16:42:39+00",12.4,14.4,,26.3,-448,316,47,1026.9,28.8,0
"2021-01-30 16:47:39+00",13.0,14.0,,26.4,-413,411,16,1026.87,28.9,0
"2021-01-30 16:52:39+00",10.9,11.9,,26.6,-229,423,10,1026.85,29,0
"2021-01-30 16:57:39+00",15.5,17.5,,26.8,-490,503,39,1026.69,29.2,0
"2021-01-30 17:02:39+00",12.5,15.5,,26.8,-475,291,33,1026.61,29.3,0
"2021-01-30 17:07:39+00",10.5,14.5,,27.3,-214,393,-3,1026.6,29.5,0
"2021-01-30 17:12:39+00",12.7,14.7,,27.6,-362,430,32,1026.5,30,0
"2021-01-30 17:17:39+00",7.6,8.6,,27.6,-244,226,36,1026.41,30.3,0
"2021-01-30 17:22:39+00",16.1,18.1,,27.9,-498,521,52,1026.35,30.6,0
"2021-01-30 17:27:39+00",11.9,12.9,,27.9,-260,451,12,1026.28,30.6,0
"2021-01-30 17:32:39+00",10.4,12.4,,27.8,-381,259,7,1026.2,30.6,0
"2021-01-30 17:37:39+00",10.6,11.6,,27.6,-398,251,7,1026.03,30.7,0
"2021-01-30 17:42:39+00",12.7,14.7,,27.9,-491,289,44,1025.89,30.8,0
"2021-01-30 17:47:39+00",12.5,14.5,,28.1,-518,181,5,1025.81,30.9,0
"2021-01-30 17:52:39+00",9.0,10.0,,28.3,-316,255,65,1025.64,31.4,0
"2021-01-30 17:57:39+00",11.4,13.4,,28.9,-355,362,61,1025.59,31.3,0
"2021-01-30 18:02:39+00",8.9,11.9,,29.2,-242,299,36,1025.56,31.5,0
"2021-01-30 18:07:39+00",9.0,12.0,,29.1,-374,178,30,1025.44,31.9,0
"2021-01-30 18:12:39+00",10.3,14.3,,29.2,-350,294,27,1025.37,32.1,0
"2021-01-30 18:17:39+00",12.6,14.6,,29.1,-498,279,18,1025.33,32.1,0
"2021-01-30 18:22:39+00",8.2,10.2,,29.4,-338,159,21,1025.22,32.5,0
"2021-01-30 18:27:39+00",8.7,9.7,,29.7,-385,71,50,1025.12,33.1,0
"2021-01-30 18:32:39+00",7.8,9.8,,30,-248,235,24,1025.08,33.3,0
"2021-01-30 18:37:39+00",8.1,12.1,,29.7,-352,79,12,1024.98,33.8,0
"2021-01-30 18:42:39+00",13.6,14.6,,29.9,-456,397,20,1024.92,33.2,0
"2021-01-30 18:47:39+00",12.2,13.2,,30.1,-506,241,19,1024.87,33,0
"2021-01-30 18:52:39+00",9.6,10.6,,30.2,-372,227,13,1024.85,33.2,0
"2021-01-30 18:57:39+00",11.0,13.0,,30.4,-430,237,1,1024.72,33.4,0
"2021-01-30 19:02:39+00",12.2,13.2,,30.3,-541,92,31,1024.74,33.7,0
"2021-01-30 19:07:39+00",12.5,15.5,,30.6,-446,312,36,1024.63,34.3,0
"2021-01-30 19:12:39+00",10.4,11.4,,30.7,-393,241,-5,1024.55,33.8,0
"2021-01-30 19:17:39+00",9.4,11.4,,31.2,-396,169,75,1024.47,34.2,0
"2021-01-30 19:22:39+00",12.5,13.5,,31.3,-503,242,68,1024.41,34.3,0
"2021-01-30 19:27:39+00",11.4,13.4,,31,-400,307,33,1024.39,33.9,0
"2021-01-30 19:32:39+00",11.0,13.0,,31.6,-437,258,32,1024.42,34,0
"2021-01-30 19:37:39+00",8.9,9.9,,31.3,-385,-23,-13,1024.48,34.2,0
"2021-01-30 19:42:39+00",8.1,10.1,,31.5,-339,131,75,1024.55,34.8,0
"2021-01-30 19:47:39+00",12.7,14.7,,32,-481,306,37,1024.49,35.1,0
"2021-01-30 19:52:39+00",11.4,13.4,,31.9,-482,188,15,1024.53,34.9,0
"2021-01-30 19:57:39+00",12.9,14.9,,31.9,-512,281,24,1024.6,34.9,0
"2021-01-30 20:02:39+00",13.3,15.3,,32.1,-581,187,17,1024.56,34.9,0
"2021-01-30 20:07:39+00",12.4,14.4,,32.1,-556,89,65,1024.58,35.2,0
"2021-01-30 20:12:39+00",11.6,12.6,,31.9,-511,140,35,1024.66,35.5,0
"2021-01-30 20:17:39+00",13.7,14.7,,32,-608,98,12,1024.78,35.6,0
"2021-01-30 20:22:39+00",10.7,11.7,,32.6,-462,176,68,1024.68,35.9,0
"2021-01-30 20:27:39+00",11.8,13.8,,32.7,-513,167,31,1024.68,35.9,0
"2021-01-30 20:32:39+00",11.0,13.0,,32.4,-454,185,37,1024.67,35.8,0
"2021-01-30 20:37:39+00",12.9,14.9,,32.5,-565,176,33,1024.62,35.7,0
"2021-01-30 20:42:39+00",14.0,16.0,,32.5,-620,109,36,1024.56,35.6,0
"2021-01-30 20:47:39+00",14.1,15.1,,32.5,-610,170,20,1024.65,35.4,0
"2021-01-30 20:52:39+00",12.7,13.7,,32.6,-541,205,20,1024.67,35.1,0
"2021-01-30 20:57:39+00",12.3,13.3,,32.6,-558,113,40,1024.81,35.1,0
"2021-01-30 21:02:39+00",11.6,13.6,,32.5,-524,45,39,1024.79,35.1,0
"2021-01-30 21:07:39+00",10.3,11.3,,32.6,-446,136,39,1024.79,35.2,0
"2021-01-30 21:12:39+00",13.8,15.8,,32.5,-589,200,34,1024.82,35,0
"2021-01-30 21:17:39+00",13.7,14.7,,32.4,-585,206,27,1024.77,34.7,0
"2021-01-30 21:22:39+00",10.3,12.3,,32.4,-435,159,40,1024.74,34.6,0
"2021-01-30 21:27:39+00",13.1,14.1,,32.4,-545,231,18,1024.75,34.4,0
"2021-01-30 21:32:39+00",11.8,12.8,,32.4,-521,145,25,1024.79,34.2,0
"2021-01-30 21:37:39+00",11.0,12.0,,32.4,-480,133,27,1024.92,34,0
"2021-01-30 21:42:39+00",11.7,13.7,,32.3,-501,147,25,1024.89,33.9,0
"2021-01-30 21:47:39+00",12.5,13.5,,32.2,-532,177,17,1024.88,33.4,0
"2021-01-30 21:52:39+00",11.7,13.7,,32,-508,178,23,1025.09,32.9,0
"2021-01-30 21:57:39+00",10.9,11.9,,32.2,-455,194,14,1025.18,32.3,0
"2021-01-30 22:02:39+00",9.4,10.4,,32,-413,98,12,1025.31,32,0
"2021-01-30 22:07:39+00",10.7,11.7,,31.9,-468,136,17,1025.36,31.7,0
"2021-01-30 22:12:39+00",11.4,12.4,,31.9,-462,218,14,1025.29,31.1,0
"2021-01-30 22:17:39+00",10.0,11.0,,31.9,-417,185,19,1025.32,30.7,0
"2021-01-30 22:22:39+00",8.9,9.9,,31.5,-387,107,11,1025.55,30.5,0
"2021-01-30 22:27:39+00",8.8,9.8,,31.2,-391,89,11,1025.65,30.2,0
"2021-01-30 22:32:39+00",8.5,9.5,,31.3,-363,125,14,1025.68,29.9,0
"2021-01-30 22:37:39+00",5.9,6.9,,30.9,-262,27,11,1025.92,29.7,0
"2021-01-30 22:42:39+00",6.8,7.8,,30.7,-304,40,11,1025.93,29.2,0
"2021-01-30 22:47:39+00",6.9,7.9,,30.7,-287,116,11,1025.95,28.9,0
"2021-01-30 22:52:39+00",7.7,8.7,,30.9,-329,119,13,1025.98,28.6,0
"2021-01-30 22:57:39+00",7.6,8.6,,30.9,-317,133,19,1026.08,28.5,0
"2021-01-30 23:02:39+00",8.0,9.0,,30.9,-346,95,5,1026.23,28.4,0
"2021-01-30 23:07:39+00",6.2,7.2,,30.7,-266,38,12,1026.22,28.5,0
"2021-01-30 23:12:39+00",7.1,8.1,,30.5,-318,37,3,1026.37,28.3,0
"2021-01-30 23:17:39+00",5.9,7.9,,30.4,-248,68,8,1026.34,28.2,0
"2021-01-30 23:22:39+00",6.9,7.9,,30.2,-302,15,5,1026.47,28,0
"2021-01-30 23:27:39+00",7.7,8.7,,30.2,-341,-1,0,1026.45,27.7,0
"2021-01-30 23:32:39+00",6.1,7.1,,30.2,-270,55,2,1026.27,27.5,0
"2021-01-30 23:37:39+00",6.5,7.5,,30.3,-279,35,9,1026.49,27.5,0
"2021-01-30 23:42:39+00",6.7,7.7,,30.7,-294,52,7,1026.5,27.6,0
"2021-01-30 23:47:39+00",7.6,8.6,,30.8,-339,-3,3,1026.62,27.7,0
"2021-01-30 23:52:39+00",8.1,9.1,,30.7,-363,-5,6,1026.81,27.5,0
"2021-01-30 23:57:39+00",6.8,7.8,,30.5,-287,72,9,1026.79,27.5,0
